DW3349 Weather Reports


time (UTC)temp
F
wind
direction
speed
knots
gust
knots
rain 1hr
in
rain 24hr
in
rain mn
in
humidity
%
barometer
mb
20260506184812 54 62 3.5 9.6 0.00 0.00 0.00 71 1011.0
20260506184313 54 354 3.5 9.6 0.00 0.00 0.00 71 1011.0
20260506183813 54 106 2.6 6.1 0.00 0.00 0.00 71 1010.9
20260506183316 54 45 2.6 5.2 0.00 0.00 0.00 71 1010.9
20260506183312 54 52 1.7 8.7 0.00 0.00 0.00 72 1010.8
20260506182313 54 34 4.3 8.7 0.00 0.00 0.00 73 1010.7
20260506181812 54 37 4.3 8.7 0.00 0.00 0.00 74 1010.7
20260506181311 55 49 1.7 4.3 0.00 0.00 0.00 75 1010.6
20260506180811 55 44 1.7 3.5 0.00 0.00 0.00 75 1010.6
20260506180314 55 44 1.7 5.2 0.00 0.00 0.00 75 1010.5
20260506175812 55 55 1.7 6.1 0.00 0.00 0.00 75 1010.5
20260506175312 55 48 1.7 11.3 0.00 0.00 0.00 75 1010.4
20260506174810 55 41 3.5 11.3 0.00 0.00 0.00 75 1010.3
20260506174312 55 30 2.6 12.2 0.00 0.00 0.00 75 1010.3
20260506173810 55 51 5.2 12.2 0.00 0.00 0.00 75 1010.2
20260506173309 55 44 5.2 11.3 0.00 0.00 0.00 75 1010.1
20260506172808 55 80 6.1 11.3 0.00 0.00 0.00 75 1010.2
20260506172309 55 31 3.5 8.7 0.00 0.00 0.00 76 1010.1
20260506171811 55 0 3.5 8.7 0.00 0.00 0.00 76 1010.1
20260506171542 55 17 4.3 8.7 0.00 0.00 0.00 76 1010.0
20260506170803 55 51 4.3 10.4 0.00 0.00 0.00 76 1010.0
20260506170304 55 0 4.3 12.2 0.00 0.00 0.00 75 1010.0
20260506165803 55 329 4.3 12.2 0.00 0.00 0.00 75 1010.0
20260506165305 55 39 4.3 11.3 0.00 0.00 0.00 75 1010.0
20260506164803 55 347 5.2 10.4 0.00 0.00 0.00 75 1009.9
20260506164300 55 55 3.5 14.8 0.00 0.00 0.00 75 1010.0
20260506163759 55 49 6.1 14.8 0.00 0.00 0.00 75 1010.0
20260506163301 55 25 5.2 11.3 0.00 0.00 0.00 75 1009.9
20260506162758 55 54 3.5 11.3 0.00 0.00 0.00 75 1009.8
20260506162259 55 326 4.3 10.4 0.00 0.00 0.00 75 1009.9
20260506161758 55 52 4.3 13.9 0.00 0.00 0.00 75 1009.9
20260506161259 55 41 3.5 13.9 0.00 0.00 0.00 74 1009.9
20260506160758 55 32 6.1 15.6 0.00 0.00 0.00 74 1009.8
20260506160259 55 23 6.1 15.6 0.00 0.00 0.00 74 1009.9
20260506160045 55 16 6.1 16.5 0.00 0.00 0.00 74 1009.9
20260506155259 55 300 7.0 16.5 0.00 0.00 0.00 73 1009.8
20260506154756 56 344 7.8 13.0 0.00 0.00 0.00 73 1009.8
20260506154255 56 0 4.3 13.0 0.00 0.00 0.00 73 1009.9
20260506153753 56 20 6.1 13.0 0.00 0.00 0.00 73 1009.8
20260506153252 56 4 6.1 14.8 0.00 0.00 0.00 73 1009.9
20260506152755 56 0 7.8 20.0 0.00 0.00 0.00 72 1009.8
20260506152252 57 4 7.8 20.0 0.00 0.00 0.00 72 1009.8
20260506151759 57 141 7.0 19.1 0.00 0.00 0.00 71 1009.7
20260506151755 57 17 7.8 19.1 0.00 0.00 0.00 71 1009.8
20260506150753 57 30 7.8 18.2 0.00 0.00 0.00 72 1009.6
20260506150524 57 23 9.6 18.2 0.00 0.00 0.00 71 1009.7
20260506145753 57 62 6.1 16.5 0.00 0.00 0.00 71 1009.8
20260506145252 57 331 7.8 18.2 0.00 0.00 0.00 71 1009.7
20260506144751 57 3 10.4 18.2 0.00 0.00 0.00 71 1009.7
20260506144252 57 45 7.0 19.1 0.00 0.00 0.00 71 1009.5
20260506143750 57 286 8.7 19.1 0.00 0.00 0.00 71 1009.7
20260506143248 57 323 8.7 17.4 0.00 0.00 0.00 71 1009.6
20260506143018 57 27 7.0 14.8 0.00 0.00 0.00 71 1009.7
20260506142248 57 55 5.2 15.6 0.00 0.00 0.00 71 1009.6
20260506141746 57 51 6.1 15.6 0.00 0.00 0.00 72 1009.7
20260506141247 57 338 7.0 15.6 0.00 0.00 0.00 72 1009.6
20260506141016 57 0 7.0 13.0 0.00 0.00 0.00 73 1009.7
20260506140245 57 135 4.3 13.9 0.00 0.00 0.00 73 1009.6
20260506135745 58 35 7.8 15.6 0.00 0.00 0.00 73 1009.6
20260506135243 58 0 5.2 16.5 0.00 0.00 0.00 73 1009.6
20260506134743 58 0 9.6 16.5 0.00 0.00 0.00 73 1009.6
20260506134241 58 10 5.2 15.6 0.00 0.00 0.00 73 1009.7
20260506133743 58 1 7.0 19.1 0.00 0.00 0.00 72 1009.6
20260506133243 58 330 7.8 19.1 0.00 0.00 0.00 73 1009.6
20260506132742 58 48 7.8 14.8 0.00 0.00 0.00 74 1009.5
20260506132239 58 18 7.8 17.4 0.00 0.00 0.00 75 1009.5
20260506131739 58 0 7.8 17.4 0.00 0.00 0.00 74 1009.5
20260506131238 57 4 5.2 15.6 0.00 0.00 0.00 76 1009.5
20260506131005 57 28 6.1 15.6 0.00 0.00 0.00 77 1009.6
20260506130240 57 30 2.6 12.2 0.00 0.00 0.00 77 1009.5
20260506125739 56 18 5.2 12.2 0.00 0.00 0.00 77 1009.5
20260506125242 56 34 7.0 15.6 0.00 0.00 0.00 76 1009.5
20260506124746 56 56 4.3 14.8 0.00 0.00 0.00 76 1009.5
20260506124741 56 337 7.8 15.6 0.00 0.00 0.00 76 1009.5
20260506123737 56 334 7.0 18.2 0.00 0.00 0.00 75 1009.5
20260506123238 56 44 7.8 18.2 0.00 0.00 0.00 74 1009.4
20260506122739 57 24 7.8 19.1 0.00 0.00 0.00 74 1009.4
20260506122238 57 20 7.0 19.1 0.00 0.00 0.00 74 1009.4
20260506121739 57 13 5.2 16.5 0.00 0.00 0.00 75 1009.3
20260506121240 57 23 7.0 16.5 0.00 0.00 0.00 74 1009.3
20260506120736 56 0 6.1 13.0 0.00 0.00 0.00 75 1009.3
20260506120237 56 0 7.8 13.9 0.00 0.00 0.00 75 1009.3
20260506115739 56 357 4.3 13.9 0.00 0.00 0.00 75 1009.2
20260506115237 56 34 7.8 14.8 0.00 0.00 0.00 74 1009.1
20260506114738 56 21 5.2 14.8 0.00 0.00 0.00 74 1009.2
20260506114235 56 0 7.0 14.8 0.00 0.00 0.00 74 1009.3
20260506113736 56 18 5.2 13.9 0.00 0.00 0.00 74 1009.3
20260506113235 56 35 5.2 12.2 0.00 0.00 0.00 74 1009.3
20260506112800 56 0 7.8 13.9 0.00 0.00 0.00 75 1009.3
20260506112751 56 27 3.5 13.9 0.00 0.00 0.00 74 1009.2
20260506111737 56 94 6.1 13.0 0.00 0.00 0.00 75 1009.2
20260506111235 56 0 6.1 13.0 0.00 0.00 0.00 75 1009.3
20260506110745 56 47 4.3 13.0 0.00 0.00 0.00 75 1009.3
20260506110738 56 54 6.1 13.0 0.00 0.00 0.00 76 1009.3
20260506105733 57 344 8.7 15.6 0.00 0.00 0.00 76 1009.3
20260506105234 57 8 7.0 15.6 0.00 0.00 0.00 76 1009.3
20260506104734 57 17 6.1 12.2 0.00 0.00 0.00 76 1009.2
20260506104234 57 353 5.2 13.9 0.00 0.00 0.00 76 1009.3
20260506103735 57 55 6.1 14.8 0.00 0.00 0.00 75 1009.3
20260506103236 57 80 5.2 14.8 0.00 0.00 0.00 75 1009.4
20260506102735 57 44 7.0 17.4 0.00 0.00 0.00 76 1009.3
20260506102235 57 354 7.8 17.4 0.00 0.00 0.00 76 1009.2
20260506101735 57 0 7.0 16.5 0.00 0.00 0.00 75 1009.2
20260506101234 57 14 9.6 16.5 0.00 0.00 0.00 75 1009.2
20260506100731 57 83 7.0 15.6 0.00 0.00 0.00 75 1009.1
20260506100232 57 55 9.6 14.8 0.00 0.00 0.00 76 1009.1
20260506095734 57 24 3.5 14.8 0.00 0.00 0.00 76 1009.2
20260506095458 57 48 7.8 13.9 0.00 0.00 0.00 75 1009.2
20260506094732 56 11 5.2 13.9 0.00 0.00 0.00 76 1009.1
20260506094231 56 326 2.6 13.0 0.00 0.00 0.00 78 1009.1
20260506093732 55 62 6.1 13.0 0.00 0.00 0.00 78 1009.1
20260506093231 55 347 4.3 12.2 0.00 0.00 0.00 79 1009.0
20260506092731 55 6 7.0 12.2 0.00 0.00 0.00 80 1009.1
20260506092231 54 17 5.2 12.2 0.00 0.00 0.00 80 1009.0
20260506091731 54 37 5.2 13.0 0.00 0.00 0.00 80 1009.0
20260506091231 54 14 4.3 13.0 0.00 0.00 0.00 80 1009.1
20260506090731 54 0 3.5 13.0 0.00 0.00 0.00 81 1009.0
20260506090231 54 34 7.0 13.9 0.00 0.00 0.00 82 1009.0
20260506085958 54 47 6.1 13.9 0.00 0.00 0.00 82 1009.0
20260506085230 53 334 3.5 13.0 0.00 0.00 0.00 82 1009.0
20260506084732 53 336 3.5 13.0 0.00 0.00 0.00 82 1008.9
20260506084456 53 0 6.1 15.6 0.00 0.00 0.00 82 1008.8
20260506083729 53 48 7.0 15.6 0.00 0.00 0.00 82 1008.9
20260506083454 53 51 4.3 11.3 0.00 0.00 0.00 82 1008.8
20260506082728 53 0 4.3 11.3 0.00 0.00 0.00 83 1008.8
20260506082226 53 69 1.7 11.3 0.00 0.00 0.00 83 1008.7
20260506081727 53 30 4.3 11.3 0.00 0.00 0.00 83 1008.8
20260506081459 53 47 3.5 13.0 0.00 0.00 0.00 84 1008.8
20260506080954 53 24 4.3 14.8 0.00 0.00 0.00 84 1008.7
20260506080227 53 93 5.2 14.8 0.00 0.00 0.00 84 1008.8
20260506073221 52 24 8.7 14.8 0.00 0.00 0.00 85 1008.7
20260506072721 52 18 5.2 13.9 0.00 0.00 0.00 85 1008.7
20260506072452 52 48 5.2 13.9 0.00 0.00 0.00 85 1008.6
20260506071717 52 62 6.1 13.0 0.00 0.00 0.00 85 1008.6
20260506071218 52 47 2.6 14.8 0.00 0.00 0.00 85 1008.7
20260506070717 52 58 2.6 14.8 0.00 0.00 0.00 85 1008.7
20260506070218 52 51 4.3 13.9 0.00 0.00 0.00 85 1008.7
20260506062218 51 3 5.2 13.0 0.00 0.00 0.00 86 1008.5
20260506061711 51 106 5.2 13.0 0.00 0.00 0.00 86 1008.5
20260506061213 51 17 3.5 9.6 0.00 0.00 0.00 86 1008.4
20260506060712 51 38 3.5 13.9 0.00 0.00 0.00 86 1008.4
20260506060211 51 350 7.0 13.9 0.00 0.00 0.00 86 1008.5
20260506051208 50 80 4.3 13.0 0.00 0.00 0.00 86 1008.4
20260506050706 50 71 5.2 13.0 0.00 0.00 0.00 87 1008.4
20260506050211 50 8 2.6 13.0 0.00 0.00 0.00 86 1008.4
20260506050206 50 47 3.5 13.0 0.00 0.00 0.00 86 1008.4
20260506044936 50 52 5.2 15.6 0.00 0.00 0.00 86 1008.4
20260506044204 50 38 5.2 15.6 0.00 0.00 0.00 86 1008.4
20260506043704 50 96 3.5 14.8 0.00 0.00 0.00 86 1008.4
20260506043204 50 65 3.5 13.9 0.00 0.00 0.00 86 1008.5
20260506042702 50 3 5.2 15.6 0.00 0.00 0.00 86 1008.4
20260506042205 50 21 5.2 15.6 0.00 0.00 0.00 86 1008.4
20260506041704 50 28 5.2 13.9 0.00 0.00 0.00 86 1008.4
20260506041203 50 18 4.3 13.9 0.00 0.00 0.00 86 1008.5
20260506040715 50 34 3.5 14.8 0.00 0.00 0.00 87 1008.5
20260506040707 50 41 5.2 12.2 0.00 0.00 0.00 87 1008.6
20260506035702 50 357 2.6 14.8 0.00 0.00 0.00 87 1008.5
20260506035201 50 34 5.2 13.9 0.00 0.00 0.00 87 1008.5
20260506034933 49 353 6.1 19.1 0.00 0.00 0.00 87 1008.6
20260506034202 49 31 3.5 19.1 0.00 0.00 0.00 87 1008.6
20260506033659 49 56 5.2 13.9 0.00 0.00 0.00 87 1008.6
20260506033200 49 52 1.7 12.2 0.00 0.00 0.00 87 1008.7
20260506032700 49 68 3.5 12.2 0.00 0.00 0.00 87 1008.7
20260506032157 49 51 6.1 11.3 0.00 0.00 0.00 87 1008.7
20260506031657 49 65 3.5 11.3 0.00 0.00 0.00 87 1008.6
20260506031200 49 48 5.2 11.3 0.00 0.00 0.00 87 1008.7
20260506030655 49 52 2.6 12.2 0.00 0.00 0.00 87 1008.7
20260506030155 49 48 4.3 12.2 0.00 0.00 0.00 87 1008.8
20260506025919 49 61 5.2 12.2 0.00 0.00 0.00 87 1008.9
20260506025153 48 30 4.3 12.2 0.00 0.00 0.00 87 1008.9
20260506024654 48 345 3.5 9.6 0.00 0.00 0.00 87 1009.0
20260506024150 48 51 2.6 11.3 0.00 0.00 0.00 87 1008.9
20260506023651 48 326 2.6 11.3 0.00 0.00 0.00 86 1008.9
20260506023151 48 38 1.7 10.4 0.00 0.00 0.00 87 1009.0
20260506022900 48 38 7.0 10.4 0.00 0.00 0.00 87 1009.0
20260506021650 48 65 5.2 11.3 0.00 0.00 0.00 87 1009.0
20260506021150 48 80 2.6 11.3 0.00 0.00 0.00 87 1009.0
20260506020647 48 6 2.6 7.8 0.00 0.00 0.00 86 1009.1
20260506020148 48 34 3.5 7.8 0.00 0.00 0.00 86 1009.2
20260506015648 48 73 3.5 7.8 0.00 0.00 0.00 86 1009.1
20260506015147 48 14 2.6 7.8 0.00 0.00 0.00 86 1009.1
20260506014644 48 14 3.5 6.1 0.00 0.00 0.00 86 1009.1
20260506014144 48 21 2.6 6.1 0.00 0.00 0.00 86 1009.1
20260506013653 48 83 2.6 9.6 0.00 0.00 0.00 86 1009.2
20260506013644 48 17 2.6 9.6 0.00 0.00 0.00 86 1009.2
20260506012643 48 38 4.3 10.4 0.00 0.00 0.00 86 1009.1
20260506012143 48 55 3.5 10.4 0.00 0.00 0.00 86 1009.2
20260506011642 48 65 3.5 11.3 0.00 0.00 0.00 85 1009.2
20260506011143 48 4 6.1 11.3 0.00 0.00 0.00 85 1009.2
20260506010645 48 61 5.2 9.6 0.00 0.00 0.00 85 1009.2
20260506010141 48 54 3.5 11.3 0.00 0.00 0.00 85 1009.2
20260506005913 48 51 3.5 11.3 0.00 0.00 0.00 84 1009.3
20260506005414 48 68 5.2 10.4 0.00 0.00 0.00 84 1009.3
20260506004639 48 63 4.3 11.3 0.00 0.00 0.00 84 1009.4
20260506004139 48 27 5.2 11.3 0.00 0.00 0.00 84 1009.4
20260506003637 48 25 4.3 10.4 0.00 0.00 0.00 84 1009.4
20260506003135 48 68 3.5 9.6 0.00 0.00 0.00 84 1009.5
20260506002904 48 47 5.2 10.4 0.00 0.00 0.00 83 1009.6
20260506002133 48 34 4.3 10.4 0.00 0.00 0.00 83 1009.7
20260506001635 48 71 2.6 10.4 0.00 0.00 0.00 83 1009.6
20260506001134 48 8 3.5 10.4 0.00 0.00 0.00 82 1009.7
20260506000904 48 41 6.1 10.4 0.00 0.00 0.00 81 1009.7
20260506000135 48 0 3.5 9.6 0.00 0.00 0.00 81 1009.8
20260505235632 48 56 1.7 8.7 0.00 0.00 0.00 81 1009.8
20260505235133 48 56 3.5 8.7 0.00 0.00 0.00 81 1009.9
20260505234632 48 38 2.6 8.7 0.00 0.00 0.00 80 1009.8
20260505234132 48 11 3.5 9.6 0.00 0.00 0.00 80 1009.9
20260505233634 48 65 3.5 11.3 0.00 0.00 0.00 80 1009.9
20260505233131 48 23 5.2 11.3 0.00 0.00 0.00 80 1010.0
20260505232630 48 39 4.3 10.4 0.00 0.00 0.00 79 1010.0
20260505232129 48 18 4.3 10.4 0.00 0.00 0.00 79 1010.0
20260505231630 48 10 4.3 10.4 0.00 0.00 0.00 79 1010.1
20260505231409 48 32 3.5 12.2 0.00 0.00 0.00 79 1010.1
20260505230907 48 45 4.3 12.2 0.00 0.00 0.00 79 1010.2
20260505230403 48 25 3.5 7.8 0.00 0.00 0.00 79 1010.1
20260505225631 48 51 2.6 7.8 0.00 0.00 0.00 78 1010.1
20260505225130 48 86 2.6 6.1 0.00 0.00 0.00 78 1010.2
20260505224631 48 48 3.5 7.8 0.00 0.00 0.00 78 1010.1
20260505224130 49 51 2.6 10.4 0.00 0.00 0.00 78 1010.1
20260505223902 49 61 2.6 10.4 0.00 0.00 0.00 77 1010.1
20260505223129 49 21 3.5 9.6 0.00 0.00 0.00 77 1010.2
20260505222631 49 20 2.6 7.8 0.00 0.00 0.00 77 1010.2
20260505222128 49 31 2.6 8.7 0.00 0.00 0.00 77 1010.2
20260505221627 49 35 4.3 8.7 0.00 0.00 0.00 77 1010.3
20260505221126 49 8 2.6 6.1 0.00 0.00 0.00 77 1010.4
20260505220625 49 41 4.3 8.7 0.00 0.00 0.00 77 1010.4
20260505220125 49 58 2.6 8.7 0.00 0.00 0.00 77 1010.4
20260505215626 49 63 3.5 10.4 0.00 0.00 0.00 77 1010.5
20260505215123 49 24 3.5 10.4 0.00 0.00 0.00 76 1010.5
20260505214620 49 69 1.7 8.7 0.00 0.00 0.00 76 1010.5
20260505214137 49 27 4.3 9.6 0.00 0.00 0.00 76 1010.4
20260505214130 49 45 2.6 9.6 0.00 0.00 0.00 76 1010.5
20260505213121 50 34 1.7 7.8 0.00 0.00 0.00 76 1010.5
20260505212621 50 21 3.5 7.8 0.00 0.00 0.00 76 1010.6
20260505212123 50 48 3.5 7.8 0.00 0.00 0.00 76 1010.6
20260505211850 50 39 1.7 8.7 0.00 0.00 0.00 76 1010.6
20260505211123 50 63 3.5 8.7 0.00 0.00 0.00 76 1010.6
20260505210620 50 27 2.6 5.2 0.00 0.00 0.00 76 1010.6
20260505210120 50 49 2.6 5.2 0.00 0.00 0.00 76 1010.7
20260505205620 50 55 1.7 5.2 0.00 0.00 0.00 76 1010.7
20260505205350 50 61 1.7 6.1 0.00 0.00 0.00 76 1010.7
20260505204619 51 38 3.5 6.1 0.00 0.00 0.00 76 1010.7
20260505204120 51 8 3.5 6.1 0.00 0.00 0.00 76 1010.7
20260505203619 51 45 2.6 9.6 0.00 0.00 0.00 76 1010.7
20260505203119 51 41 2.6 9.6 0.00 0.00 0.00 76 1010.6
20260505202620 51 27 5.2 9.6 0.00 0.00 0.00 75 1010.7
20260505202118 51 68 2.6 11.3 0.00 0.00 0.00 76 1010.6
20260505201618 51 59 5.2 11.3 0.00 0.00 0.00 76 1010.6
20260505201117 51 72 4.3 10.4 0.00 0.00 0.00 76 1010.5
20260505200619 51 58 4.3 13.0 0.00 0.00 0.00 75 1010.5
20260505200119 51 27 4.3 13.0 0.00 0.00 0.00 75 1010.5
20260505195616 51 71 4.3 9.6 0.00 0.00 0.00 75 1010.5
20260505195117 52 44 3.5 11.3 0.00 0.00 0.00 75 1010.4
20260505194617 52 31 6.1 13.0 0.00 0.00 0.00 75 1010.4
20260505194117 52 65 6.1 13.0 0.00 0.00 0.00 75 1010.3
20260505193618 52 6 5.2 12.2 0.00 0.00 0.00 76 1010.3
20260505193351 52 42 2.6 11.3 0.00 0.00 0.00 76 1010.2
20260505192617 52 6 5.2 10.4 0.00 0.00 0.00 76 1010.1
20260505192117 53 0 1.7 10.4 0.00 0.00 0.00 76 1010.1
20260505191616 53 42 4.3 13.0 0.00 0.00 0.00 76 1010.1
20260505191116 53 11 3.5 13.0 0.00 0.00 0.00 76 1010.0
20260505190614 53 7 5.2 12.2 0.00 0.00 0.00 76 1009.9
20260505190114 53 0 5.2 14.8 0.00 0.00 0.00 76 1009.9
20260505185616 53 68 5.2 14.8 0.00 0.00 0.00 76 1009.9